Weather History for PHOG - January, 2012

Change the Weather History Date:

Tuesday, January 17, 2012

  Actual Average Record
Temperature  
Mean Temperature 79 °F 72 °F  
Max Temperature 83 °F 81 °F 88 °F (1953)
Min Temperature 74 °F 63 °F 53 °F (1969)
Degree Days  
Heating Degree Days 0 0  
Month to date heating degree days 0 0  
Since 1 July heating degree days 0 0  
Cooling Degree Days 14 7  
Month to date cooling degree days 126 119  
Year to date cooling degree days 126 119  
Growing Degree Days 28 (Base 50)    
Moisture  
Dew Point 66 °F    
Average Humidity 65    
Maximum Humidity 79    
Minimum Humidity 51    
Precipitation  
Precipitation 0.00 in 0.09 in 2.04 in (1959)
Month to date precipitation 0.00 1.64  
Year to date precipitation 0.00 1.64  
Snow  
Snow 0.00 in - - ()
Month to date snowfall 0.0  
Since 1 July snowfall 0.0  
Snow Depth 0.00 in    
Sea Level Pressure  
Sea Level Pressure 29.98 in    
Wind  
Wind Speed 20 mph (SSW)    
Max Wind Speed 33 mph    
Max Gust Speed 43 mph    
Visibility 10 miles    
Events      
T = Trace of Precipitation, MM = Missing Value Source: NWS Daily Summary

Daily Weather History Graph

Daily Weather History Graph

Search for Another Location

Airport or City:

Trip Planner

Search our weather history database for the weather conditions in past years. The results will help you decide how hot, cold, wet, or windy it might be!

Date:

Astronomy

Jan. 17, 2012 Rise Set
Actual Time 7:05 AM HST 6:06 PM HST
Civil Twilight 6:41 AM HST 6:30 PM HST
Nautical Twilight 6:14 AM HST 6:57 PM HST
Astronomical Twilight 5:47 AM HST 7:24 PM HST
Moon 1:41 AM HST (1/17) 1:07 PM HST (1/17)
Length of Visible Light 11h 48m
Length of Day
11h 01m
Waning Crescent, 33% of the Moon is Illuminated
Jan 17
Waning Crescent
Jan 22
New
Jan 30
First Quarter
Feb 7
Full
Feb 14
Last Quarter

Hourly Weather History & Observations

Time (HST) Temp. Heat Index Dew Point Humidity Pressure Visibility Wind Dir Wind Speed Gust Speed Precip Events Conditions
12:54 AM 75.0 °F - 66.9 °F 76% 29.99 in 10.0 mi SW 16.1 mph - N/A   Partly Cloudy
1:47 AM 75.2 °F - 66.2 °F 73% 29.94 in 10.0 mi SSW 16.1 mph 25.3 mph N/A   Mostly Cloudy
1:54 AM 75.0 °F - 66.9 °F 76% 29.96 in 10.0 mi SSW 16.1 mph - N/A   Mostly Cloudy
2:14 AM 75.2 °F - 68.0 °F 78% 29.94 in 10.0 mi SW 16.1 mph 26.5 mph N/A   Scattered Clouds
2:42 AM 75.2 °F - 66.2 °F 73% 29.95 in 10.0 mi SW 19.6 mph 28.8 mph N/A   Mostly Cloudy
2:51 AM 75.2 °F - 66.2 °F 73% 29.95 in 10.0 mi SW 16.1 mph 25.3 mph N/A   Mostly Cloudy
2:54 AM 75.0 °F - 66.9 °F 76% 29.97 in 10.0 mi SW 16.1 mph 25.3 mph N/A   Mostly Cloudy
3:54 AM 75.0 °F - 66.0 °F 73% 29.99 in 10.0 mi SSW 18.4 mph - N/A   Clear
4:54 AM 73.9 °F - 66.0 °F 76% 29.98 in 10.0 mi SSW 17.3 mph - N/A   Partly Cloudy
5:54 AM 73.9 °F - 66.0 °F 76% 29.96 in 10.0 mi SW 16.1 mph 24.2 mph N/A   Scattered Clouds
6:54 AM 73.9 °F - 66.0 °F 76% 29.95 in 10.0 mi SSW 23.0 mph 31.1 mph N/A   Partly Cloudy
7:54 AM 75.9 °F - 66.0 °F 71% 29.98 in 10.0 mi SW 19.6 mph 33.4 mph N/A   Partly Cloudy
8:54 AM 75.9 °F - 64.9 °F 69% 30.04 in 10.0 mi SSW 19.6 mph 29.9 mph N/A   Partly Cloudy
9:54 AM 80.1 °F 81.9 °F 64.9 °F 60% 30.04 in 10.0 mi SSW 27.6 mph 34.5 mph N/A   Partly Cloudy
10:54 AM 81.0 °F 82.7 °F 64.9 °F 58% 30.03 in 10.0 mi SSW 27.6 mph 38.0 mph N/A   Partly Cloudy
11:54 AM 82.0 °F 83.1 °F 63.0 °F 52% 29.98 in 10.0 mi SSW 29.9 mph 41.4 mph N/A   Partly Cloudy
12:54 PM 82.9 °F 84.0 °F 63.0 °F 51% 29.95 in 10.0 mi SW 28.8 mph 40.3 mph N/A   Partly Cloudy
1:54 PM 80.1 °F 81.7 °F 64.0 °F 58% 29.94 in 10.0 mi SW 18.4 mph 27.6 mph N/A   Partly Cloudy
2:54 PM 79.0 °F - 64.9 °F 62% 29.94 in 10.0 mi SSW 15.0 mph 23.0 mph N/A   Partly Cloudy
3:54 PM 78.1 °F - 64.9 °F 64% 29.97 in 10.0 mi SSW 19.6 mph 26.5 mph N/A   Scattered Clouds
4:54 PM 77.0 °F - 66.0 °F 69% 29.98 in 10.0 mi SSW 12.7 mph - N/A   Clear
5:54 PM 75.9 °F - 66.0 °F 71% 29.97 in 10.0 mi SSW 12.7 mph - N/A   Clear
6:54 PM 75.9 °F - 64.9 °F 69% 30.00 in 10.0 mi SSW 13.8 mph - N/A   Partly Cloudy
7:54 PM 75.0 °F - 64.9 °F 71% 30.01 in 10.0 mi SSW 9.2 mph - N/A   Partly Cloudy
8:54 PM 75.0 °F - 66.9 °F 76% 30.02 in 10.0 mi SSW 13.8 mph - N/A   Clear
9:54 PM 75.0 °F - 68.0 °F 79% 30.00 in 10.0 mi SW 18.4 mph 25.3 mph N/A   Partly Cloudy
10:12 PM 75.2 °F - 68.0 °F 78% 29.99 in 10.0 mi SW 15.0 mph - N/A   Mostly Cloudy
10:37 PM 75.2 °F - 68.0 °F 78% 29.99 in 10.0 mi SSW 13.8 mph 21.9 mph N/A   Scattered Clouds
10:54 PM 75.0 °F - 68.0 °F 79% 30.01 in 10.0 mi SW 15.0 mph 24.2 mph N/A   Partly Cloudy
11:54 PM 75.0 °F - 66.0 °F 73% 30.01 in 10.0 mi SSW 13.8 mph - N/A   Mostly Cloudy